Lid_Strength_Index
-1 -1 0 3 10 10 13 12 9 10 10 7 6 7 9 8 9 12 2 0 -0 -0 -1 -1 -2 -2 -2 -2 -2 -2 -2 -2 -2 -2 -2 -2 -1 -1 -1 -1 -1 -1 -1 -1 -1 -1 -2 -2 -2
-1 0 2 6 11 14 13 10 11 9 8 6 6 7 8 9 5 4 3 0 -0 -1 -1 -1 -2 -2 -2 -2 -2 -2 -2 -2 -2 -2 -1 -1 -1 -1 -1 -1 -1 -1 -1 -1 -2 -2 -2 -2 -2
0 1 6 9 11 14 13 10 9 7 6 7 8 6 6 8 4 3 1 0 -0 -1 -1 -1 -2 -2 -2 -2 -2 -2 -2 -2 -2 -2 -1 -1 -1 -1 -1 -1 -1 -1 -1 -1 -2 -2 -2 -2 -2
2 3 5 10 12 10 10 8 7 7 6 5 6 8 5 3 3 2 0 -0 -0 -1 -1 -1 -2 -2 -2 -2 -2 -2 -2 -1 -1 -1 -1 -1 -1 -1 -1 -1 -1 -1 -1 -1 -2 -2 -2 -2 -2
2 5 10 11 11 9 8 7 6 7 7 6 6 9 7 3 1 1 1 0 0 -0 -1 -1 -2 -2 -2 -1 -1 -1 -2 -1 -1 -1 -1 -1 -1 -1 -1 -1 -1 -1 -1 -1 -1 -2 -1 -1 -1
7 6 10 12 11 9 7 6 6 7 6 6 7 7 6 2 2 1 0 0 -0 -0 -1 -1 -1 -2 -1 -1 -1 -1 -1 -1 -1 -1 -1 -1 -1 -1 -1 -1 -1 -1 -2 -1 -1 -1 -1 -1 -1
8 9 11 11 11 10 8 5 7 7 7 7 5 8 5 4 2 1 0 0 -0 -0 -0 -1 -1 -1 -1 -1 -1 -1 -1 -1 -1 -1 -1 -1 -1 -1 -1 -1 -1 -1 -1 -1 -2 -1 -1 -1 -1
6 8 11 10 11 11 7 6 5 6 7 3 3 8 8 4 1 1 1 0 0 -0 -0 -1 -1 -1 -1 -1 -1 -1 -1 -1 -1 -1 -1 -1 -1 -1 -1 -1 -1 -1 -1 -1 -1 -1 -1 -1 -1
4 9 11 10 10 9 6 7 5 4 5 5 4 4 3 2 1 2 2 1 1 0 -0 -1 -1 -1 -1 -1 -1 -1 -1 -1 -1 -1 -1 -1 -2 -1 -1 -1 -1 -1 -1 -1 -1 -1 -1 -1 -1
7 9 10 7 7 8 6 6 6 6 6 6 5 3 2 2 2 3 3 3 2 1 0 -0 -1 -1 -1 -1 -1 -1 -1 -1 -2 -2 -1 -2 -1 -2 -1 -1 -1 -1 -1 -1 -1 -1 -1 -1 -2
7 9 7 7 6 5 6 6 5 6 7 6 6 5 3 3 3 3 3 2 2 1 1 0 -0 -1 -1 -1 -1 -1 -1 -1 -1 -1 -1 -1 -1 -2 -1 -2 -1 -2 -1 -2 -1 -1 -1 -1 -1
8 6 6 6 6 6 7 5 6 6 5 4 3 3 3 4 3 3 3 2 2 1 1 0 -1 -0 -1 -1 -1 -1 -1 -1 -1 -1 -1 -1 -1 -1 -1 -1 -2 -2 -2 -1 -1 -1 -1 -1 -1
8 7 6 5 5 5 5 6 6 6 4 4 3 3 4 3 3 2 2 1 1 2 1 0 -0 -0 -1 -1 -1 -1 -1 -1 -1 -1 -1 -1 -1 -1 -1 -1 -1 -1 -1 -1 -1 -1 -1 -1 -1
6 6 6 6 6 6 7 6 6 5 4 4 4 4 3 3 3 2 2 2 2 1 1 0 -0 -1 -1 -0 -1 -1 -1 -1 -1 -1 -1 -2 -1 -1 -1 -1 -1 -1 -1 -1 -1 -1 -1 -0 -1
6 8 7 6 6 7 6 9 8 5 4 5 5 4 4 3 3 3 2 2 1 1 0 0 -0 -1 -0 -0 -1 -1 -1 -1 -1 -1 -2 -2 -1 -1 -1 -1 -1 -1 -1 -1 -1 -1 -1 -1 -1
8 8 10 7 7 6 7 10 7 5 5 5 5 4 4 3 3 2 2 1 1 1 1 0 -0 -0 -0 -0 -1 -1 -1 -1 -1 -1 -1 -2 -2 -2 -1 -1 -1 -1 -1 -1 -1 -0 -0 -1 -0
8 10 9 8 6 7 8 9 7 5 5 6 5 5 4 4 3 2 2 1 1 1 1 1 -0 0 -0 -1 -1 -1 -1 -1 -1 -1 -1 -1 -1 -1 -1 -1 -1 -1 -1 -1 -1 -0 -0 0 -0
10 10 9 9 7 7 8 9 7 6 6 6 5 5 5 4 3 2 2 1 1 0 0 0 0 -0 -0 -0 -1 -0 -0 -1 -1 -1 -1 -1 -1 -1 -1 -1 -1 -1 -0 -0 -0 -0 -1 -0 -0
8 9 9 8 6 8 9 8 7 6 6 6 6 5 5 4 3 2 2 1 1 1 1 1 1 0 0 0 1 1 1 0 -0 -1 -1 -1 -1 -1 -1 -1 -1 -1 -0 -0 -0 -0 0 0 -1
9 10 9 8 7 8 8 9 7 7 7 6 6 6 5 4 3 3 2 2 1 1 1 1 1 0 0 0 0 0 0 0 -0 -1 -1 -1 -1 -1 -1 -1 -1 -1 -0 -0 -0 -0 1 0 -0
9 9 9 9 7 7 8 8 8 7 6 6 5 5 4 4 4 3 3 2 2 2 1 1 1 0 0 -0 -0 0 -0 -0 0 0 -0 -1 -1 -1 -1 -1 -1 -1 -1 0 -0 -0 0 2 0
10 9 9 8 9 11 8 12 8 8 8 7 6 5 5 4 4 3 3 2 2 2 1 1 0 0 0 -0 0 1 2 2 1 0 0 -0 -1 -1 -1 -1 -1 -1 -1 -0 -0 -0 -0 0 2
8 7 8 8 9 10 10 11 8 7 7 6 6 6 5 4 4 3 3 2 2 1 1 1 1 1 0 0 0 1 1 1 0 0 0 -0 -0 -1 -1 -1 -1 -1 -0 -1 -0 -0 0 0 1
8 9 10 9 9 11 10 10 9 9 7 6 6 5 5 4 4 3 2 2 2 1 1 1 1 1 0 0 0 1 1 1 1 1 1 1 0 -0 -1 -1 -1 -1 -1 -0 -0 -1 -0 -0 0
8 10 11 12 12 12 10 10 8 8 7 6 6 5 5 4 4 3 3 3 2 2 1 1 1 1 1 1 1 1 1 1 1 1 1 1 1 1 -0 -0 -0 -0 -1 -1 -1 -0 -0 -0 0
9 9 11 13 13 11 11 11 8 6 7 5 5 5 4 4 4 3 3 3 2 2 1 1 1 2 1 1 1 0 0 1 1 0 0 1 1 0 -1 -0 -1 -1 -1 -1 -1 -0 -0 -0 0
10 10 10 12 13 12 10 9 6 5 6 6 6 6 5 4 4 3 3 2 2 2 2 2 1 1 1 1 1 1 0 0 1 0 -0 0 -0 -0 -0 -0 -0 -1 -1 -1 -1 -0 0 -0 1
8 9 11 10 13 13 11 11 9 8 8 7 7 6 5 4 4 3 3 2 2 2 1 1 1 2 1 1 1 1 1 0 0 0 0 0 -0 -0 -0 -0 -0 -0 -1 -1 -0 -0 -0 0 1
8 8 11 10 11 12 12 10 7 8 8 8 7 6 6 5 4 3 3 2 2 2 2 2 2 1 1 1 1 1 1 0 0 0 0 0 -0 -0 -0 -0 -0 -0 -0 -0 -0 -0 -0 1 2
8 9 9 10 12 11 11 10 7 8 7 7 7 6 5 5 4 3 3 2 2 2 2 2 2 2 1 1 1 1 1 0 1 1 0 -0 0 -0 -0 -0 -0 -0 -0 -0 0 0 1 2 2